Weather Roundup
Issued by NWS Springfield, MO

Home | Current Version | Previous Version | Text Only | Print | Product List | Glossary On
Versions: 1 2 3 4 5 6 7 8 9 10 11 12 13 14 15 16 17 18 19 20 21 22 23 24 25 26 27 28 29 30 31 32 33 34 35 36 37 38 39 40 41 42 43 44 45 46 47 48 49 50
000
NZUS99 KSGF 221607
HRRSGF

HOURLY WEATHER
NATIONAL WEATHER SERVICE SPRINGFIELD MO
1100 AM CDT FRI AUG 22 2014

......SGF CWA......

CITY           SKY/WX    TMP DP  RH WIND       PRES   REMARKS
SPRINGFIELD    SUNNY     90  68  48 SW15      30.03S HX  94
JOPLIN         SUNNY     90  70  51 S13       30.01R HX  95
WEST PLAINS    SUNNY     87  71  58 W8        30.08F HX  93
ROLLA          MOSUNNY   86  71  60 SW10      30.01S HX  91
OSAGE BEACH    MOSUNNY   88  70  55 SW9       30.00S HX  92
BRANSON        MOSUNNY   91  68  46 SW7       30.07R HX  95

......SURROUNDING SGF CWA......

CITY           SKY/WX    TMP DP  RH WIND       PRES   REMARKS
CHANUTE        SUNNY     90  68  48 S17       29.96F HX  94
PARSONS        MOSUNNY   89  70  53 S12       29.98S HX  94
COFFEYVILLE    SUNNY     90  70  51 SW15G22   29.96S HX  95
EMPORIA        PTSUNNY   89  68  49 SW12      29.94R HX  93
GROVE OK       SUNNY     90  72  55 S13       30.03S HX  96
ROGERS AR      SUNNY     88  70  55 SW12G23   30.08S HX  93
SILOAM SPRINGS SUNNY     86  70  58 SW14      30.07S HX  90
HARRISON AR    MOSUNNY   87  70  56 S5        30.08S HX  92
NEAR YELLVILLE SUNNY     90  70  51 S7        30.06R HX  95

......KANSAS AND MISSOURI......

CITY           SKY/WX    TMP DP  RH WIND       PRES   REMARKS
KANSAS CTY INT PTSUNNY   80  73  79 S8        29.95F
DOWNTOWN KC    MOSUNNY   86  72  62 W6        29.94F HX  92
COLUMBIA       MOSUNNY   85  74  69 SW5       30.00S HX  92
SEDALIA        MOSUNNY   88  74  63 W6        29.99S HX  96
ST JOSEPH      CLOUDY    77  75  93 CALM      29.94S
ST LOUIS       PTSUNNY   90  74  59 NW9       30.01S HX  99
SPIRIT OF STL  PTSUNNY   85  73  67 SW3       30.00S HX  91
KIRKSVILLE     PTSUNNY   82  75  79 SW6       29.98R
WICHITA        MOSUNNY   90  65  43 S15       29.93S HX  92
TOPEKA         PTSUNNY   87  71  58 SE3       29.95S HX  93
OLATHE         SUNNY     86  71  60 S6        29.96F HX  91

......TENNESSEE......

CITY           SKY/WX    TMP DP  RH WIND       PRES   REMARKS
MEMPHIS        MOSUNNY   90  74  59 SW8       30.09F HX  99
NASHVILLE      PTSUNNY   90  74  59 W10G16    30.10S HX  99

......ARKANSAS.......

CITY           SKY/WX    TMP DP  RH WIND       PRES   REMARKS
FAYETTEVILLE   MOSUNNY   87  72  60 SW15G21   30.07R HX  93
FT SMITH       SUNNY     89  73  59 SW8       30.04R HX  97
LITTLE ROCK    SUNNY     88  72  58 SW10      30.07F HX  94

......OKLAHOMA.......

CITY           SKY/WX    TMP DP  RH WIND       PRES   REMARKS
TULSA          SUNNY     90  71  53 S12       29.97S HX  96
PONCA CITY     MOSUNNY   91  68  46 S10G17    29.95S HX  95
MCALESTER      SUNNY     88  73  61 S14G23    30.05R HX  95
OKLAHOMA CITY  SUNNY     91  67  44 SW20G29   30.00S HX  94

......IOWA............

CITY           SKY/WX    TMP DP  RH WIND       PRES   REMARKS
DES MOINES     PTSUNNY   82  72  71 SE5       29.94R
QUAD CITIES    CLOUDY    73  72  96 S7        29.96R

......ILLINOIS........

CITY           SKY/WX    TMP DP  RH WIND       PRES   REMARKS
QUINCY         LGT RAIN  77  73  87 CALM      30.00R FOG
CHICAGO        CLOUDY    79  74  84 W7        29.96R




USA.gov is the U.S. government's official web portal to all federal, state and local government web resources and services.